• In Uzbekistan
  • List of Countries
  • For 7 days
  • Water Temperature
  • Satellite Maps
  • Weather Map
  • Weather Widgets
  • user-avatar
    Login

    Hourly Weather Shaki

    Today, 23 September, Saturday

    Time Temperature Precipitation Wind Pressure Humidity
    00:00 +25°C° 0 mm 1 mps 735 mmHg 41%
    01:00 +24°C° 0 mm 1 mps 735 mmHg 41%
    02:00 +24°C° 0 mm 1 mps 735 mmHg 42%
    03:00 +24°C° 0 mm 1 mps 735 mmHg 43%
    04:00 +23°C° 0 mm 1 mps 735 mmHg 43%
    05:00 +23°C° 0 mm 1 mps 735 mmHg 43%
    06:00 +23°C° 0 mm 1 mps 735 mmHg 44%
    07:00 +25°C° 0 mm 1 mps 736 mmHg 40%
    08:00 +27°C° 0 mm 1 mps 736 mmHg 36%
    09:00 +29°C° 0 mm 1 mps 736 mmHg 33%
    10:00 +30°C° 0 mm 2 mps 736 mmHg 31%
    11:00 +31°C° 0 mm 3 mps 736 mmHg 29%
    12:00 +33°C° 0 mm 3 mps 736 mmHg 28%
    13:00 +33°C° 0 mm 3 mps 736 mmHg 27%
    14:00 +34°C° 0 mm 4 mps 736 mmHg 27%
    15:00 +34°C° 0 mm 4 mps 736 mmHg 26%
    16:00 +32°C° 0 mm 4 mps 736 mmHg 29%
    17:00 +29°C° 0 mm 3 mps 736 mmHg 31%
    18:00 +27°C° 0 mm 3 mps 736 mmHg 34%
    19:00 +27°C° 0 mm 3 mps 737 mmHg 34%
    20:00 +26°C° 0 mm 3 mps 737 mmHg 35%
    21:00 +25°C° 0 mm 3 mps 737 mmHg 35%
    22:00 +24°C° 0 mm 3 mps 737 mmHg 37%
    23:00 +24°C° 0 mm 2 mps 738 mmHg 38%

    Tomorrow, 24 September, Sunday

    Time Temperature Precipitation Wind Pressure Humidity
    00:00 +23°C° 0 mm 2 mps 738 mmHg 40%
    01:00 +23°C° 0 mm 2 mps 738 mmHg 41%
    02:00 +23°C° 0 mm 2 mps 738 mmHg 42%
    03:00 +21°C° 0 mm 2 mps 738 mmHg 43%
    04:00 +22°C° 0 mm 1 mps 738 mmHg 45%
    05:00 +22°C° 0 mm 1 mps 738 mmHg 46%
    06:00 +21°C° 0 mm 1 mps 738 mmHg 48%
    07:00 +23°C° 0 mm 1 mps 738 mmHg 45%
    08:00 +25°C° 0 mm 1 mps 739 mmHg 43%
    09:00 +27°C° 0 mm 2 mps 739 mmHg 40%
    10:00 +28°C° 0 mm 2 mps 739 mmHg 38%
    11:00 +29°C° 0 mm 2 mps 738 mmHg 36%
    12:00 +30°C° 0 mm 2 mps 738 mmHg 34%
    13:00 +30°C° 0 mm 3 mps 738 mmHg 33%
    14:00 +31°C° 0 mm 3 mps 738 mmHg 33%
    15:00 +31°C° 0 mm 3 mps 738 mmHg 33%
    16:00 +29°C° 0 mm 3 mps 738 mmHg 37%
    17:00 +28°C° 0 mm 2 mps 738 mmHg 41%
    18:00 +26°C° 0 mm 2 mps 738 mmHg 45%
    19:00 +25°C° 0 mm 2 mps 738 mmHg 46%
    20:00 +25°C° 0 mm 2 mps 739 mmHg 47%
    21:00 +24°C° 0 mm 3 mps 739 mmHg 47%
    22:00 +24°C° 0 mm 2 mps 739 mmHg 50%
    23:00 +23°C° 0 mm 2 mps 739 mmHg 53%

    Day after tomorrow, 25 September, Monday

    Time Temperature Precipitation Wind Pressure Humidity
    00:00 +21°C° 0 mm 2 mps 739 mmHg 55%
    01:00 +21°C° 0 mm 2 mps 739 mmHg 56%
    02:00 +22°C° 0 mm 1 mps 739 mmHg 56%
    03:00 +21°C° 0 mm 1 mps 739 mmHg 57%
    04:00 +21°C° 0 mm 1 mps 739 mmHg 56%
    05:00 +21°C° 0 mm 1 mps 739 mmHg 56%
    06:00 +20°C° 0 mm 1 mps 739 mmHg 56%
    07:00 +22°C° 0 mm 1 mps 739 mmHg 50%
    08:00 +25°C° 0 mm 1 mps 739 mmHg 44%
    09:00 +27°C° 0 mm 2 mps 739 mmHg 38%
    10:00 +27°C° 0 mm 2 mps 739 mmHg 36%
    11:00 +28°C° 0 mm 2 mps 739 mmHg 33%
    12:00 +29°C° 0 mm 2 mps 738 mmHg 31%
    13:00 +29°C° 0.1 mm 2 mps 738 mmHg 31%
    14:00 +30°C° 0.1 mm 2 mps 738 mmHg 31%
    15:00 +30°C° 0.1 mm 2 mps 738 mmHg 31%
    16:00 +28°C° 0 mm 2 mps 738 mmHg 36%
    17:00 +27°C° 0 mm 2 mps 738 mmHg 40%
    18:00 +25°C° 0 mm 1 mps 738 mmHg 44%
    19:00 +25°C° 0 mm 2 mps 739 mmHg 47%
    20:00 +24°C° 0 mm 2 mps 739 mmHg 49%
    21:00 +22°C° 0 mm 3 mps 739 mmHg 52%
    22:00 +22°C° 0 mm 3 mps 739 mmHg 56%
    23:00 +21°C° 0 mm 3 mps 739 mmHg 60%

    26 September, Tuesday

    Time Temperature Precipitation Wind Pressure Humidity
    00:00 +20°C° 0 mm 2 mps 739 mmHg 64%
    01:00 +20°C° 0 mm 2 mps 739 mmHg 65%
    02:00 +20°C° 0 mm 2 mps 739 mmHg 66%
    03:00 +20°C° 0 mm 1 mps 739 mmHg 67%
    04:00 +20°C° 0 mm 1 mps 739 mmHg 68%
    05:00 +20°C° 0 mm 1 mps 739 mmHg 68%
    06:00 +20°C° 0 mm 1 mps 739 mmHg 68%
    07:00 +20°C° 0 mm 2 mps 739 mmHg 62%
    08:00 +23°C° 0 mm 2 mps 739 mmHg 56%
    09:00 +25°C° 0 mm 3 mps 739 mmHg 49%
    10:00 +25°C° 0 mm 3 mps 739 mmHg 47%
    11:00 +26°C° 0 mm 3 mps 739 mmHg 45%
    12:00 +27°C° 0 mm 4 mps 739 mmHg 43%
    13:00 +27°C° 0 mm 4 mps 739 mmHg 42%
    14:00 +28°C° 0 mm 4 mps 739 mmHg 41%
    15:00 +28°C° 0 mm 4 mps 738 mmHg 40%
    16:00 +26°C° 0 mm 4 mps 739 mmHg 45%
    17:00 +25°C° 0 mm 4 mps 739 mmHg 49%
    18:00 +23°C° 0 mm 4 mps 739 mmHg 54%
    19:00 +21°C° 0 mm 4 mps 739 mmHg 59%
    20:00 +20°C° 0 mm 5 mps 739 mmHg 64%
    21:00 +19°C° 0 mm 5 mps 740 mmHg 69%
    22:00 +19°C° 0 mm 4 mps 739 mmHg 71%
    23:00 +18°C° 0 mm 4 mps 739 mmHg 73%

    27 September, Wednesday

    Time Temperature Precipitation Wind Pressure Humidity
    00:00 +18°C° 0 mm 3 mps 739 mmHg 75%
    01:00 +18°C° 0 mm 3 mps 739 mmHg 75%
    02:00 +17°C° 0 mm 2 mps 739 mmHg 75%
    03:00 +17°C° 0 mm 2 mps 739 mmHg 75%
    04:00 +17°C° 0 mm 2 mps 739 mmHg 74%
    05:00 +17°C° 0 mm 2 mps 739 mmHg 73%
    06:00 +18°C° 0 mm 1 mps 739 mmHg 72%
    07:00 +18°C° 0 mm 2 mps 739 mmHg 68%
    08:00 +20°C° 0 mm 2 mps 739 mmHg 63%
    09:00 +21°C° 0 mm 2 mps 740 mmHg 58%
    10:00 +22°C° 0 mm 3 mps 739 mmHg 56%
    11:00 +24°C° 0 mm 3 mps 739 mmHg 53%
    12:00 +24°C° 0 mm 3 mps 739 mmHg 51%
    13:00 +23°C° 0 mm 4 mps 739 mmHg 51%
    14:00 +23°C° 0 mm 4 mps 738 mmHg 51%
    15:00 +25°C° 0 mm 4 mps 738 mmHg 51%
    16:00 +22°C° 0 mm 4 mps 738 mmHg 58%
    17:00 +21°C° 0 mm 3 mps 739 mmHg 64%
    18:00 +20°C° 0 mm 3 mps 739 mmHg 71%
    19:00 +19°C° 0 mm 3 mps 739 mmHg 72%
    20:00 +19°C° 0 mm 3 mps 739 mmHg 72%
    21:00 +19°C° 0 mm 3 mps 739 mmHg 73%
    22:00 +19°C° 0.6 mm 3 mps 739 mmHg 75%
    23:00 +18°C° 0.6 mm 2 mps 739 mmHg 77%

    28 September, Thursday

    Time Temperature Precipitation Wind Pressure Humidity
    00:00 +18°C° 0.6 mm 2 mps 739 mmHg 79%
    01:00 +18°C° 0.3 mm 2 mps 739 mmHg 78%
    02:00 +18°C° 0.3 mm 1 mps 738 mmHg 78%
    03:00 +18°C° 0.3 mm 1 mps 738 mmHg 77%
    04:00 +18°C° 0.1 mm 1 mps 738 mmHg 78%
    05:00 +18°C° 0.1 mm 1 mps 739 mmHg 79%
    06:00 +18°C° 0.1 mm 1 mps 739 mmHg 80%
    07:00 +17°C° 0.1 mm 2 mps 739 mmHg 77%
    08:00 +18°C° 0.1 mm 2 mps 739 mmHg 75%
    09:00 +19°C° 0.1 mm 3 mps 740 mmHg 73%
    10:00 +19°C° 0.1 mm 3 mps 740 mmHg 74%
    11:00 +19°C° 0.1 mm 3 mps 740 mmHg 76%
    12:00 +19°C° 0.1 mm 3 mps 740 mmHg 77%
    13:00 +18°C° 0.1 mm 3 mps 740 mmHg 78%
    14:00 +18°C° 0.1 mm 3 mps 740 mmHg 80%
    15:00 +18°C° 0.1 mm 3 mps 740 mmHg 81%
    16:00 +17°C° 0.2 mm 3 mps 740 mmHg 83%
    17:00 +17°C° 0.2 mm 3 mps 741 mmHg 85%
    18:00 +17°C° 0.2 mm 3 mps 741 mmHg 88%
    19:00 +17°C° 0.5 mm 3 mps 741 mmHg 88%
    20:00 +16°C° 0.5 mm 3 mps 742 mmHg 88%
    21:00 +16°C° 0.5 mm 3 mps 742 mmHg 87%
    22:00 +16°C° 0.5 mm 3 mps 742 mmHg 87%
    23:00 +16°C° 0.5 mm 3 mps 742 mmHg 86%
    Show more